,,PressureMeas_1m,,PRMeasQMR101_1,,RHStat155_1m_1,,SRMeasQMS101R_1m,,TAStat155_1m_1,,GenWind_1,,GenWind_1,
2018-09-12, 00:00:06,VALID,919.98,VALID,0.0,VALID,86.202,VALID,0.005,VALID,20.225,VALID,47.0,VALID,0.0,
2018-09-12, 00:01:06,VALID,919.974,VALID,0.0,VALID,86.5,VALID,0.034,VALID,20.209,INVALID,360.0,VALID,0.0,
2018-09-12, 00:02:06,VALID,919.992,VALID,0.0,VALID,87.717,VALID,0.021,VALID,20.13,INVALID,360.0,VALID,0.0,
2018-09-12, 00:03:06,VALID,919.988,VALID,0.0,VALID,88.421,VALID,0.031,VALID,20.037,INVALID,360.0,VALID,0.0,
2018-09-12, 00:04:06,VALID,919.964,VALID,0.0,VALID,88.868,VALID,0.027,VALID,19.942,INVALID,360.0,VALID,0.0,
2018-09-12, 00:05:06,VALID,919.961,VALID,0.0,VALID,90.219,VALID,0.03,VALID,19.827,INVALID,360.0,VALID,0.0,
2018-09-12, 00:06:06,VALID,919.962,VALID,0.0,VALID,91.992,VALID,0.03,VALID,19.725,INVALID,360.0,VALID,0.0,
2018-09-12, 00:07:06,VALID,919.943,VALID,0.0,VALID,93.742,VALID,0.012,VALID,19.591,INVALID,360.0,VALID,0.0,
2018-09-12, 00:08:06,VALID,919.938,VALID,0.0,VALID,94.427,VALID,0.014,VALID,19.436,INVALID,360.0,VALID,0.0,
2018-09-12, 00:09:06,VALID,919.896,VALID,0.0,VALID,93.634,VALID,0.013,VALID,19.421,INVALID,360.0,VALID,0.0,
2018-09-12, 00:10:06,VALID,919.928,VALID,0.0,VALID,92.943,VALID,0.018,VALID,19.522,INVALID,360.0,VALID,0.0,
2018-09-12, 00:11:06,VALID,919.918,VALID,0.0,VALID,92.547,VALID,0.01,VALID,19.585,INVALID,360.0,VALID,0.0,
2018-09-12, 00:12:06,VALID,919.899,VALID,0.0,VALID,92.411,VALID,0.014,VALID,19.593,INVALID,360.0,VALID,0.0,
2018-09-12, 00:13:06,VALID,919.901,VALID,0.0,VALID,92.46,VALID,0.009,VALID,19.595,INVALID,360.0,VALID,0.0,
2018-09-12, 00:14:06,VALID,919.882,VALID,0.0,VALID,92.377,VALID,0.007,VALID,19.6,INVALID,360.0,VALID,0.0,
2018-09-12, 00:15:06,VALID,919.863,VALID,0.0,VALID,92.364,VALID,0.01,VALID,19.569,INVALID,360.0,VALID,0.0,
2018-09-12, 00:16:06,VALID,919.851,VALID,0.0,VALID,92.434,VALID,0.005,VALID,19.517,INVALID,360.0,VALID,0.0,
2018-09-12, 00:17:06,VALID,919.821,VALID,0.0,VALID,92.583,VALID,-0.003,VALID,19.479,INVALID,360.0,VALID,0.0,
2018-09-12, 00:18:06,VALID,919.815,VALID,0.0,VALID,92.377,VALID,-0.001,VALID,19.442,INVALID,360.0,VALID,0.0,
2018-09-12, 00:19:06,VALID,919.822,VALID,0.0,VALID,91.548,VALID,-0.013,VALID,19.288,INVALID,360.0,VALID,0.0,
2018-09-12, 00:20:06,VALID,919.814,VALID,0.0,VALID,92.481,VALID,0.013,VALID,19.08,INVALID,360.0,VALID,0.0,
2018-09-12, 00:21:06,VALID,919.783,VALID,0.0,VALID,94.126,VALID,0.009,VALID,19.007,INVALID,360.0,VALID,0.0,
2018-09-12, 00:22:06,VALID,919.779,VALID,0.0,VALID,94.46,VALID,0.008,VALID,18.991,INVALID,360.0,VALID,0.0,
2018-09-12, 00:23:06,VALID,919.752,VALID,0.0,VALID,94.412,VALID,0.0,VALID,18.973,INVALID,360.0,VALID,0.0,
2018-09-12, 00:24:06,VALID,919.736,VALID,0.0,VALID,94.477,VALID,-0.004,VALID,18.97,INVALID,360.0,VALID,0.0,
2018-09-12, 00:25:06,VALID,919.741,VALID,0.0,VALID,94.471,VALID,0.009,VALID,18.947,INVALID,360.0,VALID,0.0,
2018-09-12, 00:26:06,VALID,919.719,VALID,0.0,VALID,94.57,VALID,0.007,VALID,18.91,INVALID,360.0,VALID,0.0,
2018-09-12, 00:27:06,VALID,919.711,VALID,0.0,VALID,94.712,VALID,0.009,VALID,18.894,INVALID,360.0,VALID,0.0,
2018-09-12, 00:28:06,VALID,919.693,VALID,0.0,VALID,94.659,VALID,0.024,VALID,18.817,INVALID,360.0,VALID,0.0,
2018-09-12, 00:29:06,VALID,919.696,VALID,0.0,VALID,94.779,VALID,0.01,VALID,18.716,INVALID,360.0,VALID,0.0,
2018-09-12, 00:30:06,VALID,919.683,VALID,0.0,VALID,94.772,VALID,-0.005,VALID,18.58,INVALID,360.0,VALID,0.0,
2018-09-12, 00:31:06,VALID,919.672,VALID,0.0,VALID,95.489,VALID,-0.001,VALID,18.503,INVALID,360.0,VALID,0.0,
2018-09-12, 00:32:06,VALID,919.658,VALID,0.0,VALID,96.126,VALID,0.008,VALID,18.484,INVALID,360.0,VALID,0.0,
2018-09-12, 00:33:06,VALID,919.646,VALID,0.0,VALID,96.396,VALID,-0.0,VALID,18.499,INVALID,360.0,VALID,0.0,
2018-09-12, 00:34:06,VALID,919.609,VALID,0.0,VALID,96.822,VALID,0.017,VALID,18.608,INVALID,360.0,VALID,0.0,
2018-09-12, 00:35:06,VALID,919.597,VALID,0.0,VALID,96.076,VALID,0.028,VALID,18.599,INVALID,360.0,VALID,0.0,
2018-09-12, 00:36:06,VALID,919.574,VALID,0.0,VALID,95.777,VALID,0.006,VALID,18.566,INVALID,360.0,VALID,0.0,
2018-09-12, 00:37:06,VALID,919.551,VALID,0.0,VALID,95.746,VALID,-0.005,VALID,18.531,INVALID,360.0,VALID,0.0,
2018-09-12, 00:38:06,VALID,919.524,VALID,0.0,VALID,96.644,VALID,-0.018,VALID,18.61,INVALID,360.0,VALID,0.0,
2018-09-12, 00:39:06,VALID,919.498,VALID,0.0,VALID,96.752,VALID,-0.006,VALID,18.646,INVALID,360.0,VALID,0.0,
2018-09-12, 00:40:06,VALID,919.482,VALID,0.0,VALID,96.939,VALID,-0.019,VALID,18.681,INVALID,360.0,VALID,0.0,
2018-09-12, 00:41:06,VALID,919.449,VALID,0.0,VALID,96.902,VALID,-0.011,VALID,18.71,INVALID,360.0,VALID,0.0,
2018-09-12, 00:42:06,VALID,919.431,VALID,0.0,VALID,96.539,VALID,-0.029,VALID,18.715,INVALID,360.0,VALID,0.0,
2018-09-12, 00:43:06,VALID,919.428,VALID,0.0,VALID,96.361,VALID,-0.011,VALID,18.711,INVALID,360.0,VALID,0.0,
2018-09-12, 00:44:06,VALID,919.405,VALID,0.0,VALID,95.773,VALID,-0.034,VALID,18.607,INVALID,360.0,VALID,0.0,
2018-09-12, 00:45:06,VALID,919.363,VALID,0.0,VALID,96.218,VALID,-0.029,VALID,18.616,INVALID,360.0,VALID,0.0,
2018-09-12, 00:46:06,VALID,919.339,VALID,0.0,VALID,96.482,VALID,-0.008,VALID,18.621,INVALID,360.0,VALID,0.0,
2018-09-12, 00:47:06,VALID,919.308,VALID,0.0,VALID,96.548,VALID,-0.022,VALID,18.62,INVALID,360.0,VALID,0.0,
2018-09-12, 00:48:06,VALID,919.279,VALID,0.0,VALID,96.57,VALID,-0.017,VALID,18.621,INVALID,360.0,VALID,0.0,
2018-09-12, 00:49:06,VALID,919.26,VALID,0.0,VALID,96.595,VALID,-0.022,VALID,18.644,INVALID,360.0,VALID,0.0,
2018-09-12, 00:50:06,VALID,919.248,VALID,0.0,VALID,96.537,VALID,-0.02,VALID,18.646,INVALID,360.0,VALID,0.0,
2018-09-12, 00:51:06,VALID,919.212,VALID,0.0,VALID,96.508,VALID,-0.03,VALID,18.649,INVALID,360.0,VALID,0.0,
2018-09-12, 00:52:06,VALID,919.22,VALID,0.0,VALID,96.299,VALID,-0.026,VALID,18.622,INVALID,360.0,VALID,0.0,
2018-09-12, 00:53:06,VALID,919.189,VALID,0.0,VALID,96.352,VALID,-0.01,VALID,18.636,INVALID,360.0,VALID,0.0,
2018-09-12, 00:54:06,VALID,919.176,VALID,0.0,VALID,96.275,VALID,-0.023,VALID,18.633,VALID,48.0,VALID,0.0,
2018-09-12, 00:55:06,VALID,919.163,VALID,0.0,VALID,96.23,VALID,-0.01,VALID,18.626,INVALID,360.0,VALID,0.0,
2018-09-12, 00:56:06,VALID,919.156,VALID,0.0,VALID,96.368,VALID,-0.027,VALID,18.651,INVALID,360.0,VALID,0.0,
2018-09-12, 00:57:06,VALID,919.145,VALID,0.0,VALID,96.53,VALID,-0.012,VALID,18.715,INVALID,360.0,VALID,0.0,
2018-09-12, 00:58:06,VALID,919.118,VALID,0.0,VALID,96.514,VALID,-0.013,VALID,18.791,INVALID,360.0,VALID,0.0,
2018-09-12, 00:59:06,VALID,919.102,VALID,0.0,VALID,96.387,VALID,-0.006,VALID,18.846,INVALID,360.0,VALID,0.0,
2018-09-12, 01:00:06,VALID,919.101,VALID,0.0,VALID,96.135,VALID,-0.003,VALID,18.875,INVALID,360.0,VALID,0.0,
2018-09-12, 01:01:06,VALID,919.093,VALID,0.0,VALID,95.865,VALID,-0.012,VALID,18.861,INVALID,360.0,VALID,0.0,
2018-09-12, 01:02:06,VALID,919.08,VALID,0.0,VALID,95.807,VALID,-0.004,VALID,18.86,INVALID,360.0,VALID,0.0,
2018-09-12, 01:03:06,VALID,919.083,VALID,0.0,VALID,95.834,VALID,-0.01,VALID,18.874,INVALID,360.0,VALID,0.0,
2018-09-12, 01:04:06,VALID,919.084,VALID,0.0,VALID,95.775,VALID,-0.006,VALID,18.902,INVALID,360.0,VALID,0.0,
2018-09-12, 01:05:06,VALID,919.072,VALID,0.0,VALID,95.608,VALID,-0.02,VALID,18.919,INVALID,360.0,VALID,0.0,
2018-09-12, 01:06:06,VALID,919.114,VALID,0.0,VALID,95.406,VALID,-0.019,VALID,18.943,INVALID,360.0,VALID,0.0,
2018-09-12, 01:07:06,VALID,919.123,VALID,0.0,VALID,95.122,VALID,0.0,VALID,18.962,INVALID,360.0,VALID,0.0,
2018-09-12, 01:08:06,VALID,919.116,VALID,0.0,VALID,94.67,VALID,0.023,VALID,18.984,INVALID,360.0,VALID,0.0,
2018-09-12, 01:09:06,VALID,919.114,VALID,0.0,VALID,94.312,VALID,0.028,VALID,19.038,INVALID,360.0,VALID,0.0,
2018-09-12, 01:10:06,VALID,919.12,VALID,0.0,VALID,93.897,VALID,0.019,VALID,19.111,INVALID,360.0,VALID,0.0,
2018-09-12, 01:11:06,VALID,919.101,VALID,0.0,VALID,92.936,VALID,0.019,VALID,19.223,INVALID,360.0,VALID,0.0,
2018-09-12, 01:12:06,VALID,919.11,VALID,0.0,VALID,92.285,VALID,-0.001,VALID,19.306,INVALID,360.0,VALID,0.0,
2018-09-12, 01:13:06,VALID,919.101,VALID,0.0,VALID,92.086,VALID,0.035,VALID,19.318,INVALID,360.0,VALID,0.0,
2018-09-12, 01:14:06,VALID,919.113,VALID,0.0,VALID,91.864,VALID,0.015,VALID,19.335,INVALID,360.0,VALID,0.0,
2018-09-12, 01:15:06,VALID,919.103,VALID,0.0,VALID,91.761,VALID,0.019,VALID,19.322,INVALID,360.0,VALID,0.0,
2018-09-12, 01:16:06,VALID,919.098,VALID,0.0,VALID,91.874,VALID,0.011,VALID,19.254,INVALID,360.0,VALID,0.0,
2018-09-12, 01:17:06,VALID,919.079,VALID,0.0,VALID,92.136,VALID,0.032,VALID,19.194,INVALID,360.0,VALID,0.0,
2018-09-12, 01:18:06,VALID,919.073,VALID,0.0,VALID,92.358,VALID,0.027,VALID,19.147,INVALID,360.0,VALID,0.0,
2018-09-12, 01:19:06,VALID,919.062,VALID,0.0,VALID,92.568,VALID,0.026,VALID,19.132,INVALID,360.0,VALID,0.0,
2018-09-12, 01:20:06,VALID,919.068,VALID,0.0,VALID,92.402,VALID,0.017,VALID,19.167,INVALID,360.0,VALID,0.0,
2018-09-12, 01:21:06,VALID,919.059,VALID,0.0,VALID,91.708,VALID,0.031,VALID,19.126,INVALID,360.0,VALID,0.0,
2018-09-12, 01:22:06,VALID,919.049,VALID,0.0,VALID,91.998,VALID,0.004,VALID,19.03,INVALID,360.0,VALID,0.0,
2018-09-12, 01:23:06,VALID,919.054,VALID,0.0,VALID,92.57,VALID,-0.023,VALID,18.96,INVALID,360.0,VALID,0.0,
2018-09-12, 01:24:06,VALID,919.034,VALID,0.0,VALID,92.602,VALID,-0.011,VALID,19.016,INVALID,360.0,VALID,0.0,
2018-09-12, 01:25:06,VALID,919.031,VALID,0.0,VALID,92.092,VALID,-0.018,VALID,19.031,INVALID,360.0,VALID,0.0,
2018-09-12, 01:26:06,VALID,919.015,VALID,0.0,VALID,92.329,VALID,-0.022,VALID,18.971,INVALID,360.0,VALID,0.0,
2018-09-12, 01:27:06,VALID,919.019,VALID,0.0,VALID,92.688,VALID,-0.025,VALID,18.935,INVALID,360.0,VALID,0.0,
2018-09-12, 01:28:06,VALID,919.021,VALID,0.0,VALID,93.081,VALID,-0.009,VALID,18.896,INVALID,360.0,VALID,0.0,
2018-09-12, 01:29:06,VALID,919.015,VALID,0.0,VALID,93.372,VALID,-0.036,VALID,18.899,INVALID,360.0,VALID,0.0,
2018-09-12, 01:30:06,VALID,919.03,VALID,0.0,VALID,93.306,VALID,-0.024,VALID,18.903,INVALID,360.0,VALID,0.0,
2018-09-12, 01:31:06,VALID,919.023,VALID,0.0,VALID,93.341,VALID,-0.024,VALID,18.879,INVALID,360.0,VALID,0.0,
2018-09-12, 01:32:06,VALID,919.029,VALID,0.0,VALID,93.599,VALID,-0.025,VALID,18.844,INVALID,360.0,VALID,0.0,
2018-09-12, 01:33:06,VALID,919.052,VALID,0.0,VALID,93.931,VALID,-0.019,VALID,18.807,INVALID,360.0,VALID,0.0,
2018-09-12, 01:34:06,VALID,919.045,VALID,0.0,VALID,94.083,VALID,-0.024,VALID,18.762,INVALID,360.0,VALID,0.0,
2018-09-12, 01:35:06,VALID,919.049,VALID,0.0,VALID,94.506,VALID,-0.021,VALID,18.729,INVALID,360.0,VALID,0.0,
2018-09-12, 01:36:06,VALID,919.046,VALID,0.0,VALID,94.654,VALID,-0.018,VALID,18.679,INVALID,360.0,VALID,0.0,
2018-09-12, 01:37:06,VALID,919.026,VALID,0.0,VALID,94.66,VALID,-0.013,VALID,18.584,INVALID,360.0,VALID,0.0,
2018-09-12, 01:38:06,VALID,919.009,VALID,0.0,VALID,95.038,VALID,-0.014,VALID,18.479,INVALID,360.0,VALID,0.0,
2018-09-12, 01:39:06,VALID,918.979,VALID,0.0,VALID,95.674,VALID,-0.012,VALID,18.411,INVALID,360.0,VALID,0.0,
2018-09-12, 01:40:06,VALID,918.987,VALID,0.0,VALID,96.22,VALID,-0.024,VALID,18.375,INVALID,360.0,VALID,0.0,
2018-09-12, 01:41:06,VALID,918.966,VALID,0.0,VALID,96.501,VALID,-0.007,VALID,18.336,INVALID,360.0,VALID,0.0,
2018-09-12, 01:42:06,VALID,918.965,VALID,0.0,VALID,96.739,VALID,0.001,VALID,18.312,INVALID,360.0,VALID,0.0,
2018-09-12, 01:43:06,VALID,918.953,VALID,0.0,VALID,97.16,VALID,-0.022,VALID,18.34,INVALID,360.0,VALID,0.0,
2018-09-12, 01:44:06,VALID,918.949,VALID,0.0,VALID,97.339,VALID,0.002,VALID,18.343,INVALID,360.0,VALID,0.0,
2018-09-12, 01:45:06,VALID,918.942,VALID,0.0,VALID,97.379,VALID,-0.004,VALID,18.334,INVALID,360.0,VALID,0.0,
2018-09-12, 01:46:06,VALID,918.94,VALID,0.0,VALID,97.479,VALID,-0.011,VALID,18.343,INVALID,360.0,VALID,0.0,
2018-09-12, 01:47:06,VALID,918.93,VALID,0.0,VALID,97.481,VALID,-0.003,VALID,18.349,INVALID,360.0,VALID,0.0,
2018-09-12, 01:48:06,VALID,918.916,VALID,0.0,VALID,97.479,VALID,-0.008,VALID,18.352,INVALID,360.0,VALID,0.0,
2018-09-12, 01:49:06,VALID,918.92,VALID,0.0,VALID,97.431,VALID,-0.01,VALID,18.35,INVALID,360.0,VALID,0.0,
2018-09-12, 01:50:06,VALID,918.926,VALID,0.0,VALID,97.308,VALID,-0.029,VALID,18.364,INVALID,360.0,VALID,0.0,
2018-09-12, 01:51:06,VALID,918.911,VALID,0.0,VALID,97.113,VALID,-0.008,VALID,18.356,INVALID,360.0,VALID,0.0,
2018-09-12, 01:52:06,VALID,918.904,VALID,0.0,VALID,96.812,VALID,-0.01,VALID,18.295,INVALID,360.0,VALID,0.0,
2018-09-12, 01:53:06,VALID,918.898,VALID,0.0,VALID,96.81,VALID,-0.015,VALID,18.268,INVALID,360.0,VALID,0.0,
2018-09-12, 01:54:06,VALID,918.885,VALID,0.0,VALID,96.932,VALID,-0.008,VALID,18.259,INVALID,360.0,VALID,0.0,
2018-09-12, 01:55:06,VALID,918.894,VALID,0.0,VALID,97.16,VALID,-0.006,VALID,18.292,INVALID,360.0,VALID,0.0,
2018-09-12, 01:56:06,VALID,918.885,VALID,0.0,VALID,97.039,VALID,0.003,VALID,18.282,INVALID,360.0,VALID,0.0,
2018-09-12, 01:57:06,VALID,918.868,VALID,0.0,VALID,96.978,VALID,-0.005,VALID,18.279,INVALID,360.0,VALID,0.0,
2018-09-12, 01:58:06,VALID,918.881,VALID,0.0,VALID,97.161,VALID,-0.013,VALID,18.335,INVALID,360.0,VALID,0.0,
2018-09-12, 01:59:06,VALID,918.894,VALID,0.0,VALID,97.088,VALID,-0.004,VALID,18.384,VALID,47.0,VALID,0.0,
2018-09-12, 02:00:06,VALID,918.866,VALID,0.0,VALID,96.939,VALID,-0.019,VALID,18.422,INVALID,360.0,VALID,0.0,
2018-09-12, 02:01:06,VALID,918.865,VALID,0.0,VALID,96.697,VALID,-0.012,VALID,18.454,INVALID,360.0,VALID,0.0,
2018-09-12, 02:02:06,VALID,918.845,VALID,0.0,VALID,96.564,VALID,-0.006,VALID,18.489,INVALID,360.0,VALID,0.0,
2018-09-12, 02:03:06,VALID,918.828,VALID,0.0,VALID,96.406,VALID,-0.008,VALID,18.491,INVALID,360.0,VALID,0.0,
2018-09-12, 02:04:06,VALID,918.804,VALID,0.0,VALID,96.481,VALID,-0.014,VALID,18.492,INVALID,360.0,VALID,0.0,
2018-09-12, 02:05:06,VALID,918.751,VALID,0.0,VALID,96.585,VALID,-0.009,VALID,18.488,INVALID,360.0,VALID,0.0,
2018-09-12, 02:06:06,VALID,918.754,VALID,0.0,VALID,96.487,VALID,-0.008,VALID,18.468,INVALID,360.0,VALID,0.0,
2018-09-12, 02:07:06,VALID,918.724,VALID,0.0,VALID,96.354,VALID,-0.008,VALID,18.466,INVALID,360.0,VALID,0.0,
2018-09-12, 02:08:06,VALID,918.727,VALID,0.0,VALID,95.94,VALID,-0.019,VALID,18.427,INVALID,360.0,VALID,0.0,
2018-09-12, 02:09:06,VALID,918.714,VALID,0.0,VALID,95.794,VALID,-0.031,VALID,18.407,INVALID,360.0,VALID,0.0,
2018-09-12, 02:10:06,VALID,918.707,VALID,0.0,VALID,95.978,VALID,-0.032,VALID,18.397,INVALID,360.0,VALID,0.0,
2018-09-12, 02:11:06,VALID,918.661,VALID,0.0,VALID,96.215,VALID,-0.02,VALID,18.412,INVALID,360.0,VALID,0.0,
2018-09-12, 02:12:06,VALID,918.632,VALID,0.0,VALID,96.185,VALID,-0.019,VALID,18.458,INVALID,360.0,VALID,0.0,
2018-09-12, 02:13:06,VALID,918.586,VALID,0.0,VALID,95.821,VALID,-0.038,VALID,18.546,INVALID,360.0,VALID,0.0,
2018-09-12, 02:14:06,VALID,918.538,VALID,0.0,VALID,95.285,VALID,-0.03,VALID,18.605,INVALID,360.0,VALID,0.0,
2018-09-12, 02:15:06,VALID,918.523,VALID,0.0,VALID,95.007,VALID,-0.021,VALID,18.622,INVALID,360.0,VALID,0.0,
2018-09-12, 02:16:06,VALID,918.477,VALID,0.0,VALID,94.966,VALID,-0.019,VALID,18.621,INVALID,360.0,VALID,0.0,
2018-09-12, 02:17:06,VALID,918.461,VALID,0.0,VALID,94.936,VALID,-0.027,VALID,18.628,INVALID,360.0,VALID,0.0,
2018-09-12, 02:18:06,VALID,918.432,VALID,0.0,VALID,94.803,VALID,-0.019,VALID,18.623,INVALID,360.0,VALID,0.0,
2018-09-12, 02:19:06,VALID,918.425,VALID,0.0,VALID,94.414,VALID,-0.024,VALID,18.685,INVALID,360.0,VALID,0.0,
2018-09-12, 02:20:06,VALID,918.412,VALID,0.0,VALID,93.78,VALID,-0.015,VALID,18.792,INVALID,360.0,VALID,0.0,
2018-09-12, 02:21:06,VALID,918.392,VALID,0.0,VALID,93.216,VALID,-0.025,VALID,18.853,INVALID,360.0,VALID,0.0,
2018-09-12, 02:22:06,VALID,918.392,VALID,0.0,VALID,93.253,VALID,-0.017,VALID,18.838,VALID,48.0,VALID,0.0,
2018-09-12, 02:23:06,VALID,918.35,VALID,0.0,VALID,93.419,VALID,-0.016,VALID,18.822,VALID,48.0,VALID,0.0,
2018-09-12, 02:24:06,VALID,918.323,VALID,0.0,VALID,93.556,VALID,-0.013,VALID,18.786,VALID,48.0,VALID,0.0,
2018-09-12, 02:25:06,VALID,918.289,VALID,0.0,VALID,93.568,VALID,-0.008,VALID,18.77,VALID,47.0,VALID,0.0,
2018-09-12, 02:26:06,VALID,918.278,VALID,0.0,VALID,93.47,VALID,-0.018,VALID,18.771,INVALID,360.0,VALID,0.0,
2018-09-12, 02:27:06,VALID,918.23,VALID,0.0,VALID,93.479,VALID,-0.006,VALID,18.756,INVALID,360.0,VALID,0.0,
2018-09-12, 02:28:06,VALID,918.23,VALID,0.0,VALID,93.493,VALID,-0.006,VALID,18.75,INVALID,360.0,VALID,0.0,
2018-09-12, 02:29:06,VALID,918.224,VALID,0.0,VALID,93.616,VALID,-0.013,VALID,18.741,INVALID,360.0,VALID,0.0,
2018-09-12, 02:30:06,VALID,918.218,VALID,0.0,VALID,93.623,VALID,-0.021,VALID,18.718,INVALID,360.0,VALID,0.0,
2018-09-12, 02:31:06,VALID,918.195,VALID,0.0,VALID,93.671,VALID,-0.015,VALID,18.7,INVALID,360.0,VALID,0.0,
2018-09-12, 02:32:06,VALID,918.194,VALID,0.0,VALID,93.747,VALID,-0.011,VALID,18.698,INVALID,360.0,VALID,0.0,
2018-09-12, 02:33:06,VALID,918.167,VALID,0.0,VALID,93.909,VALID,-0.002,VALID,18.69,INVALID,360.0,VALID,0.0,
2018-09-12, 02:34:06,VALID,918.151,VALID,0.0,VALID,93.995,VALID,-0.019,VALID,18.682,INVALID,360.0,VALID,0.0,
2018-09-12, 02:35:06,VALID,918.138,VALID,0.0,VALID,93.992,VALID,-0.011,VALID,18.659,INVALID,360.0,VALID,0.0,
2018-09-12, 02:36:06,VALID,918.139,VALID,0.0,VALID,94.117,VALID,-0.027,VALID,18.675,INVALID,360.0,VALID,0.0,
2018-09-12, 02:37:06,VALID,918.123,VALID,0.0,VALID,94.049,VALID,0.004,VALID,18.703,INVALID,360.0,VALID,0.0,
2018-09-12, 02:38:06,VALID,918.1,VALID,0.0,VALID,94.28,VALID,0.01,VALID,18.721,INVALID,360.0,VALID,0.0,
2018-09-12, 02:39:06,VALID,918.099,VALID,0.0,VALID,94.441,VALID,0.004,VALID,18.698,INVALID,360.0,VALID,0.0,
2018-09-12, 02:40:06,VALID,918.075,VALID,0.0,VALID,94.745,VALID,0.012,VALID,18.662,INVALID,360.0,VALID,0.0,
2018-09-12, 02:41:06,VALID,918.065,VALID,0.0,VALID,94.993,VALID,-0.006,VALID,18.626,INVALID,360.0,VALID,0.0,
2018-09-12, 02:42:06,VALID,918.047,VALID,0.0,VALID,95.301,VALID,-0.016,VALID,18.62,INVALID,360.0,VALID,0.0,
2018-09-12, 02:43:06,VALID,918.02,VALID,0.0,VALID,95.127,VALID,0.009,VALID,18.595,INVALID,360.0,VALID,0.0,
2018-09-12, 02:44:06,VALID,917.998,VALID,0.0,VALID,94.669,VALID,-0.001,VALID,18.59,INVALID,360.0,VALID,0.0,
2018-09-12, 02:45:06,VALID,918.012,VALID,0.0,VALID,94.376,VALID,-0.008,VALID,18.597,INVALID,360.0,VALID,0.0,
2018-09-12, 02:46:06,VALID,917.987,VALID,0.0,VALID,94.298,VALID,0.008,VALID,18.599,INVALID,360.0,VALID,0.0,
2018-09-12, 02:47:06,VALID,917.973,VALID,0.0,VALID,94.155,VALID,0.017,VALID,18.599,INVALID,360.0,VALID,0.0,
2018-09-12, 02:48:06,VALID,917.982,VALID,0.0,VALID,94.092,VALID,0.002,VALID,18.603,INVALID,360.0,VALID,0.0,
2018-09-12, 02:49:06,VALID,917.972,VALID,0.0,VALID,93.991,VALID,0.012,VALID,18.586,INVALID,360.0,VALID,0.0,
2018-09-12, 02:50:06,VALID,917.996,VALID,0.0,VALID,93.937,VALID,0.005,VALID,18.545,INVALID,360.0,VALID,0.0,
2018-09-12, 02:51:06,VALID,917.98,VALID,0.0,VALID,94.068,VALID,0.003,VALID,18.495,INVALID,360.0,VALID,0.0,
2018-09-12, 02:52:06,VALID,917.996,VALID,0.0,VALID,94.229,VALID,0.007,VALID,18.455,INVALID,360.0,VALID,0.0,
2018-09-12, 02:53:06,VALID,917.998,VALID,0.0,VALID,94.257,VALID,0.011,VALID,18.434,INVALID,360.0,VALID,0.0,
2018-09-12, 02:54:06,VALID,917.995,VALID,0.0,VALID,94.345,VALID,0.018,VALID,18.421,INVALID,360.0,VALID,0.0,
2018-09-12, 02:55:06,VALID,918.006,VALID,0.0,VALID,94.353,VALID,0.008,VALID,18.403,INVALID,360.0,VALID,0.0,
2018-09-12, 02:56:06,VALID,918.013,VALID,0.0,VALID,94.37,VALID,0.017,VALID,18.383,INVALID,360.0,VALID,0.0,
2018-09-12, 02:57:06,VALID,918.006,VALID,0.0,VALID,94.397,VALID,0.029,VALID,18.354,INVALID,360.0,VALID,0.0,
2018-09-12, 02:58:06,VALID,918.024,VALID,0.0,VALID,94.375,VALID,0.003,VALID,18.303,INVALID,360.0,VALID,0.0,
2018-09-12, 02:59:06,VALID,918.035,VALID,0.0,VALID,94.602,VALID,0.031,VALID,18.247,INVALID,360.0,VALID,0.0,
2018-09-12, 03:00:06,VALID,918.052,VALID,0.0,VALID,95.124,VALID,0.009,VALID,18.288,INVALID,360.0,VALID,0.0,
2018-09-12, 03:01:06,VALID,918.073,VALID,0.0,VALID,95.177,VALID,0.032,VALID,18.334,INVALID,360.0,VALID,0.0,
2018-09-12, 03:02:06,VALID,918.105,VALID,0.0,VALID,94.983,VALID,0.035,VALID,18.369,INVALID,360.0,VALID,0.0,
2018-09-12, 03:03:06,VALID,918.108,VALID,0.0,VALID,94.746,VALID,0.025,VALID,18.402,INVALID,360.0,VALID,0.0,
2018-09-12, 03:04:06,VALID,918.098,VALID,0.0,VALID,94.426,VALID,0.035,VALID,18.488,INVALID,360.0,VALID,0.0,
2018-09-12, 03:05:06,VALID,918.128,VALID,0.0,VALID,93.676,VALID,0.021,VALID,18.554,INVALID,360.0,VALID,0.0,
2018-09-12, 03:06:06,VALID,918.138,VALID,0.0,VALID,93.334,VALID,0.024,VALID,18.545,INVALID,360.0,VALID,0.0,
2018-09-12, 03:07:06,VALID,918.145,VALID,0.0,VALID,93.785,VALID,0.019,VALID,18.511,INVALID,360.0,VALID,0.0,
2018-09-12, 03:08:06,VALID,918.171,VALID,0.0,VALID,94.237,VALID,-0.004,VALID,18.493,INVALID,360.0,VALID,0.0,
2018-09-12, 03:09:06,VALID,918.174,VALID,0.0,VALID,94.537,VALID,0.002,VALID,18.495,INVALID,360.0,VALID,0.0,
2018-09-12, 03:10:07,VALID,918.184,VALID,0.0,VALID,94.548,VALID,-0.008,VALID,18.471,VALID,49.0,VALID,0.0,
2018-09-12, 03:11:06,VALID,918.194,VALID,0.0,VALID,94.477,VALID,-0.026,VALID,18.432,INVALID,360.0,VALID,0.0,
2018-09-12, 03:12:07,VALID,918.222,VALID,0.0,VALID,94.669,VALID,-0.016,VALID,18.383,INVALID,360.0,VALID,0.0,
2018-09-12, 03:13:07,VALID,918.233,VALID,0.0,VALID,94.943,VALID,-0.013,VALID,18.367,INVALID,360.0,VALID,0.0,
2018-09-12, 03:14:07,VALID,918.254,VALID,0.0,VALID,95.203,VALID,-0.02,VALID,18.359,INVALID,360.0,VALID,0.0,
2018-09-12, 03:15:07,VALID,918.299,VALID,0.0,VALID,95.454,VALID,-0.011,VALID,18.349,INVALID,360.0,VALID,0.0,
2018-09-12, 03:16:07,VALID,918.332,VALID,0.0,VALID,95.662,VALID,-0.014,VALID,18.339,INVALID,360.0,VALID,0.0,
2018-09-12, 03:17:07,VALID,918.353,VALID,0.0,VALID,95.703,VALID,-0.009,VALID,18.32,INVALID,360.0,VALID,0.0,
2018-09-12, 03:18:07,VALID,918.396,VALID,0.0,VALID,95.653,VALID,0.0,VALID,18.282,INVALID,360.0,VALID,0.0,
2018-09-12, 03:19:07,VALID,918.425,VALID,0.0,VALID,95.54,VALID,-0.022,VALID,18.241,INVALID,360.0,VALID,0.0,
2018-09-12, 03:20:07,VALID,918.445,VALID,0.0,VALID,95.667,VALID,-0.015,VALID,18.211,INVALID,360.0,VALID,0.0,
2018-09-12, 03:21:07,VALID,918.458,VALID,0.0,VALID,95.815,VALID,-0.008,VALID,18.179,INVALID,360.0,VALID,0.0,
2018-09-12, 03:22:07,VALID,918.499,VALID,0.0,VALID,96.346,VALID,-0.018,VALID,18.273,INVALID,360.0,VALID,0.0,
2018-09-12, 03:23:07,VALID,918.497,VALID,0.0,VALID,96.279,VALID,-0.024,VALID,18.406,INVALID,360.0,VALID,0.0,
2018-09-12, 03:24:07,VALID,918.5,VALID,0.0,VALID,95.915,VALID,-0.021,VALID,18.51,INVALID,360.0,VALID,0.0,
2018-09-12, 03:25:07,VALID,918.514,VALID,0.0,VALID,95.496,VALID,-0.016,VALID,18.587,INVALID,360.0,VALID,0.0,
2018-09-12, 03:26:07,VALID,918.525,VALID,0.0,VALID,95.241,VALID,-0.005,VALID,18.632,INVALID,360.0,VALID,0.0,
2018-09-12, 03:27:07,VALID,918.514,VALID,0.0,VALID,95.13,VALID,-0.014,VALID,18.648,INVALID,360.0,VALID,0.0,
2018-09-12, 03:28:07,VALID,918.499,VALID,0.0,VALID,95.15,VALID,-0.021,VALID,18.669,INVALID,360.0,VALID,0.0,
2018-09-12, 03:29:07,VALID,918.52,VALID,0.0,VALID,94.867,VALID,-0.014,VALID,18.635,INVALID,360.0,VALID,0.0,
2018-09-12, 03:30:07,VALID,918.51,VALID,0.0,VALID,94.867,VALID,-0.026,VALID,18.582,INVALID,360.0,VALID,0.0,
2018-09-12, 03:31:07,VALID,918.513,VALID,0.0,VALID,95.029,VALID,-0.016,VALID,18.522,INVALID,360.0,VALID,0.0,
2018-09-12, 03:32:07,VALID,918.506,VALID,0.0,VALID,95.365,VALID,-0.016,VALID,18.498,VALID,48.0,VALID,0.0,
2018-09-12, 03:33:07,VALID,918.521,VALID,0.0,VALID,95.551,VALID,-0.017,VALID,18.49,VALID,48.0,VALID,0.0,
2018-09-12, 03:34:07,VALID,918.507,VALID,0.0,VALID,95.745,VALID,-0.02,VALID,18.515,INVALID,360.0,VALID,0.0,
2018-09-12, 03:35:07,VALID,918.507,VALID,0.0,VALID,95.595,VALID,-0.02,VALID,18.513,INVALID,360.0,VALID,0.0,
2018-09-12, 03:36:07,VALID,918.502,VALID,0.0,VALID,95.485,VALID,-0.004,VALID,18.501,INVALID,360.0,VALID,0.0,
2018-09-12, 03:37:07,VALID,918.5,VALID,0.0,VALID,95.593,VALID,-0.022,VALID,18.525,VALID,48.0,VALID,0.0,
2018-09-12, 03:38:07,VALID,918.5,VALID,0.0,VALID,95.603,VALID,-0.025,VALID,18.588,INVALID,360.0,VALID,0.0,